Location: Elaine Barite Prospect
(34.1431°N, 106.7922°W)
Time: 11:55:19
(UTC+00:00)

Cosmos 2360 Rocket - Pass Details

Date: 13 December 2025
Orbit: 834 x 842 km, 71.0° (Epoch: 15 January)

Event Time Altitude Azimuth Distance (km) Brightness Sun altitude
Exits shadow 13:34:22 - 326° (NW) 3,133 4.6 -6.4°
Reaches altitude 10° 13:36:19 10° 319° (NW) 2,448 4.1 -6.1°
Maximum altitude 13:41:16 33° 257° (WSW) 1,373 2.9 -5.1°
Drops below altitude 10° 13:46:11 10° 194° (SSW) 2,434 4.8 -4.2°
Sets 13:48:49 0° 185° (S) 3,364 5.6 -3.7°
